Regional Weather Roundup
Issued by NWS

Home | Current Version | Previous Version | Text Only | Print | Product List | Glossary On
Versions: 1 2 3 4 5 6 7 8 9 10 11 12 13 14 15 16 17 18 19 20 21 22 23 24 25 26 27
000
ASUS46 KSEW 300910
RWRWA

WASHINGTON REGIONAL WEATHER ROUNDUP
NATIONAL WEATHER SERVICE SEATTLE WA
200 AM PDT THU MAR 30 2017

NOTE:"FAIR" INDICATES FEW OR NO CLOUDS BELOW 12,000 FEET WITH NO
SIGNIFICANT WEATHER AND/OR OBSTRUCTIONS TO VISIBILITY.

WAZ507-509-555>559-301000-
SEATTLE, TACOMA, EVERETT, AND VICINITY

CITY           SKY/WX    TMP DP  RH WIND       PRES   REMARKS
EVERETT        LGT RAIN  42  41  96 E3        30.03R
BOEING FIELD   CLOUDY    46  42  86 S3        30.04R
RENTON         CLOUDY    46  43  89 S3        30.04R
SEATAC AIRPORT CLOUDY    45  40  82 SW9       30.04R
JBLM-MCCHORD   CLOUDY    43  43  99 S7        30.05R
PUYALLUP         N/A     45  41  87 SE6       30.05R
BREMERTON      CLOUDY    41  39  93 CALM      30.06R
JBLM-FT LEWIS  PTCLDY    41  41 100 S7        30.04R
TACOMA NARROWS CLOUDY    43  40  89 S8        30.04R
$$

WAZ001-503-506-510-514-515-301000-
NORTH INTERIOR

CITY           SKY/WX    TMP DP  RH WIND       PRES   REMARKS
BELLINGHAM     LGT RAIN  44  42  93 S5        30.00R
FRIDAY HARBOR  CLOUDY    46  40  79 W5        30.03R
EASTSOUND      LGT RAIN  46  37  71 S3        30.00R
PORT ANGELES   CLOUDY    46  36  68 W12       30.03R
EDIZ HOOK      CLOUDY    47  37  67 W16G22    30.03R
PORT TOWNSEND    N/A     45  45 100 CALM      30.05R
NAS WHIDBEY    MOCLDY    48  40  73 W20       30.07R
ARLINGTON      CLOUDY    43  37  81 CALM      30.06R
BURLINGTON     CLOUDY    46  41  81 SW5       30.02R
$$

WAZ020-022-039-040-504-511-512-301000-
SOUTHWEST INTERIOR

CITY           SKY/WX    TMP DP  RH WIND       PRES   REMARKS
SHELTON        PTCLDY    43  40  89 SW14      30.02R
OLYMPIA        PTCLDY    43  40  89 SW10      30.05F
CHEHALIS       DRIZZLE   43  43 100 S6        30.09R
KELSO          LGT RAIN  45  43  93 CALM      30.12R
VANCOUVER      CLOUDY    47  41  80 NW7       30.12R
SCAPPOOSE, OR  CLOUDY    44  41  89 CALM      30.11R
PORTLAND, OR   CLOUDY    47  39  74 NW9       30.12R
$$

WAZ021-516-517-301000-
WASHINGTON COAST

CITY           SKY/WX    TMP DP  RH WIND       PRES   REMARKS
FORKS          CLOUDY    44  42  93 CALM      30.08R
HOQUIAM        LGT RAIN  45  43  93 W8        30.09R
ASTORIA, OR    CLOUDY    46  40  79 W10       30.12R
$$

WAZ019-023-024-040-567>569-301000-
CASCADE MOUNTAINS AND COLUMBIA GORGE

CITY           SKY/WX    TMP DP  RH WIND       PRES   REMARKS
STAMPEDE PASS  NOT AVBL
TROUTDALE, OR  CLOUDY    47  40  76 W6        30.11R
THE DALLES, OR PTCLDY    48  38  68 NW20G26   30.01R
$$

WAZ026-027-041>044-520-521-301000-
EAST SLOPES

CITY           SKY/WX    TMP DP  RH WIND       PRES   REMARKS
OMAK           CLEAR     44  33  65 SE6       29.81R
WENATCHEE      CLEAR     44  34  67 NW15      29.87R
ELLENSBURG     CLEAR     40  31  70 NW13      29.90S
YAKIMA         CLEAR     45  35  68 N9        29.91S
SUNNYSIDE ARPT SUNNY     37  33  85 N6        29.89F
$$

WAZ028-034-035-301000-
COLUMBIA BASIN

CITY           SKY/WX    TMP DP  RH WIND       PRES   REMARKS
EPHRATA        CLEAR     45  31  58 NW6       29.84S
MOSES LAKE     CLEAR     41  32  70 W6        29.85S
PASCO          CLEAR     46  36  68 W10       29.91F
HERMISTON, OR  MOCLDY    48  42  80 SW10      29.92R
$$

WAZ036>038-301000-
NORTHEAST WASHINGTON

CITY           SKY/WX    TMP DP  RH WIND       PRES   REMARKS
SPOKANE GEIGER MOCLDY    43  39  86 W15       29.82R
SPOKANE FELTS  CLOUDY    46  42  86 SW6       29.84R
FAIRCHILD AFB  PTCLDY    40  40 100 W10       29.81S
COEURDALENE,ID LGT RAIN  44  41  89 VRB3      29.83R
DEER PARK      MOCLDY    41  40  96 S5        29.81S
$$

WAZ029>033-301000-
SOUTHEAST WASHINGTON

CITY           SKY/WX    TMP DP  RH WIND       PRES   REMARKS
PULLMAN        MOCLDY    44  38  79 W7        29.88S
LEWISTON, ID   CLOUDY    49  39  68 W6        29.88R
WALLA WALLA    MOCLDY    49  42  77 S10       29.91F
PENDLETON, OR  CLOUDY    46  40  79 W12       29.92S
$$




USA.gov is the U.S. government's official web portal to all federal, state and local government web resources and services.